Other Public Products
Issued by NWS Charleston, SC

Current Version | Previous Version | Graphics & Text | Print | Product List | Glossary On
Versions: 1 2 3 4 5 6 7 8 9 10 11 12 13 14 15 16 17 18 19 20 21 22 23 24 25 26 27 28 29 30 31 32 33 34 35 36 37 38 39 40 41 42 43 44 45 46 47 48 49 50
930
FPUS82 KCHS 210312
OPUCHS

TEST...KCHS/KSAV Gateway Observations...TEST
National Weather Service Charleston SC
1100 PM EDT THU JUL 20 2017

NOTE: "fair" indicates few or no clouds below 12,000 feet with no
significant weather and/or obstructions to visibility.

SCZ050-WAZ558-NCZ071-TXZ119-213-PAZ071-DCZ001-FLZ074-172-MI076-
NYZ176-178-MAZ016-IL014-TNZ027-NJZ106-GAZ044-MD014-210400-

...Gateway Observations for Charleston International...

CITY           SKY/WX    TMP DP  RH WIND       PRES   REMARKS
Chas Airport   PTCLDY    78  73  84 CALM      30.04R
Seattle        PTCLDY    70  52  52 SW9       30.12S
Charlotte      PTCLDY    81  70  69 SW6       30.03R
Dallas DFW     CLEAR     90  71  53 SE12      29.98R HX  96
Dallas Love    CLEAR     91  70  49 SE14      29.99R HX  96
Philladelphia  CLOUDY    82  68  62 E6        29.91S
Wash National  MOCLDY    87  76  69 S7        29.93R HX  97
Baltimore      CLOUDY    87  71  58 S6        29.92R HX  93
Miami          MOCLDY    85  76  74 CALM      30.06F HX  94
Detroit        MOCLDY    81  71  71 SW8       29.95S
Newark         MOCLDY    77  69  76 SW6       29.88F
Laguardia      PTCLDY    82  70  66 W5        29.87F
J F K          CLOUDY    82  70  66 W12       29.88F
Boston Logan   PTCLDY    72  67  84 S5        29.84S
Ft. Lauderdale MOCLDY    83  76  79 VRB3      30.05F HX  91
Chicago O`Hare PTCLDY    78  69  73 SE5       29.97S
Chicago Midway MOCLDY    79  70  74 NE6       29.96F
Houston Bush   PTCLDY    86  73  65 S6        30.02R HX  93
Houston Hobby  PTCLDY    85  73  67 S6        30.02R HX  91
Nashville      PTCLDY    84  72  67 CALM      30.05R
Atlanta        PTCLDY    81  71  71 W6        30.05R

$$

GAZ044-118-TXZ119-213-NCZ071-DCZ001-MDZ014-506-PAZ021-071-NJZ106-
NYZ176-178-MAZ106-OHZ011-021-055-MIZ076-KYZ091-ILZ014-INZ047-
MNZ060-ONZ431-210400-

...Gateway Observations for Savannah International...

CITY           SKY/WX    TMP DP  RH WIND       PRES   REMARKS
Savannah Arpt  PTCLDY    77  71  82 CALM      30.04F
Atlanta        PTCLDY    81  71  71 W6        30.05R
Charlotte      PTCLDY    81  70  69 SW6       30.03R
Dallas DFW     CLEAR     90  71  53 SE12      29.98R HX  96
Houston Bush   PTCLDY    86  73  65 S6        30.02R HX  93
Wash National  MOCLDY    87  76  69 S7        29.93R HX  97
Wash Dulles    CLOUDY    85  70  60 NW9       29.94S
Baltimore      CLOUDY    87  71  58 S6        29.92R HX  93
Philadelphia   CLOUDY    82  68  62 E6        29.91S
Newark         MOCLDY    77  69  76 SW6       29.88F
Laguardia      PTCLDY    82  70  66 W5        29.87F
J F K          CLOUDY    82  70  66 W12       29.88F
Boston         PTCLDY    72  67  84 S5        29.84S
Pittsburg      CLOUDY    74  72  93 S3        30.01R
Akron          CLOUDY    79  71  76 SW7       30.00R
Cleveland      PTCLDY    81  69  67 SW3       29.98S
Cincinnati     CLOUDY    83  74  74 SW5       30.02R
Columbus       CLOUDY    78  75  90 S5        30.00S
Detroit        MOCLDY    81  71  71 SW8       29.95S
Chicago O`Hare PTCLDY    78  69  73 SE5       29.97S
Minneapolis    PTCLDY    80  67  64 SE6       29.96R
Indianapolis   PTCLDY    81  77  88 SW8       29.98S
Toronto Canada CLEAR     68  64  88 S3        29.90R

$$




USA.gov is the U.S. government's official web portal to all federal, state and local government web resources and services.